Regional Weather Roundup
Issued by NWS Sterling, VA

Home | Current Version | Previous Version | Text Only | Print | Product List | Glossary On
Versions: 1 2 3 4 5 6 7 8 9 10 11 12 13 14 15 16 17 18 19 20 21 22 23 24 25 26 27 28 29 30 31 32 33 34 35 36 37 38 39 40 41 42 43 44 45 46 47 48 49 50
069
ASUS41 KLWX 242111
RWRLWX

REGIONAL WEATHER ROUNDUP
NATIONAL WEATHER SERVICE BALTIMORE MD/WASHINGTON DC
400 PM EST FRI NOV 24 2017

Note: "FAIR" indicates few or no clouds below 12,000 feet
with no significant weather and/or obstructions to visibility.
 TC=TEMPERATURE CELSIUS

 * =Non NWS site. Station does not report precipitation (e.g. rain,
    snow, etc.), thunder, or fog.

DCZ001-MDZ009-015-VAZ040>042-051-053>054-242200-
WASHINGTON METRO

CITY           SKY/WX    TMP DP  RH WIND       PRES   REMARKS
WASHINGTON NAT CLEAR     52  30  43 S8        29.98F
DULLES         CLEAR     54  26  34 S7        29.96S
ANDREWS AFB    CLEAR     51  26  38 S7        29.96F
FT BELVOIR     CLEAR     53  28  38 CALM      29.97F
QUANTICO       CLEAR     52  38  58 S8        29.99F
COLLEGE PARK*  CLEAR     53  28  38 S3        29.97S
LEESBURG*      CLEAR     55  30  38 S10G16    29.95S
MANASSAS*      CLEAR     54  29  38 S8        29.97S
GAITHERSBURG*  CLEAR     52  24  33 S10       29.96S

$$

MDZ006>007-011-014-242200-
BALTIMORE METRO

CITY           SKY/WX    TMP DP  RH WIND       PRES   REMARKS
BWI AIRPORT    PTCLDY    53  25  33 SE8       29.97S
MD SCIENCE CTR   N/A     50  32  50 MISG      29.96R
MARTIN STATE   CLEAR     48  37  66 SE9       29.99F
ANNAPOLIS      CLEAR     49  34  56 S8        29.98F
FORT MEADE*    CLEAR     52  27  37 S6        29.99S

$$

MDZ012-015-019>023-242200-
MARYLAND EASTERN SHORE

CITY           SKY/WX    TMP DP  RH WIND       PRES   REMARKS
OCEAN CITY     CLEAR     48  37  65 VRB3      30.02S
SALISBURY      CLEAR     52  29  41 S5        30.00R
CAMBRIDGE*     CLEAR     50  34  53 SW5       30.01R
EASTON*        CLEAR     52  32  46 SW6       30.03S

$$

MDZ017>025-242200-
SOUTHERN MARYLAND

CITY           SKY/WX    TMP DP  RH WIND       PRES   REMARKS
PATUXENT RIVER CLEAR     49  33  54 SE8       30.00S
ST INIGOES     CLEAR     50  34  54 E7        30.00S
LEONARDTOWN*   CLEAR     50  25  37 S3        30.01S

$$

MDZ003>005-242200-
NORTH CENTRAL MARYLAND

CITY           SKY/WX    TMP DP  RH WIND       PRES   REMARKS
FREDERICK*     CLEAR     55  16  21 S9        29.97F
HAGERSTOWN APT CLEAR     54  26  34 S7        29.92S
WESTMINSTER*   CLEAR     54  25  32 S9        29.93S

$$

MDZ501>502-242200-
WESTERN MARYLAND

CITY           SKY/WX    TMP DP  RH WIND       PRES   REMARKS
OAKLAND*       CLEAR     50  18  27 SW9       29.85S
CUMBERLAND*    CLEAR     55  23  28 SW5       29.92F

$$

VAZ025>031-242200-
SHENANDOAH VALLEY

CITY           SKY/WX    TMP DP  RH WIND       PRES   REMARKS
WINCHESTER*    CLEAR     54  27  35 S8        29.91S
FRONT ROYAL*   CLEAR     55  28  35 E3        29.90S
LURAY*         CLEAR     57  25  28 SW7       29.91S
NEW MARKET*    CLEAR     57  17  21 SW10      29.90S
STAUNTON*      CLEAR     55  24  30 S7        29.93S
WAYNESBORO*    CLEAR     53  25  33 SE7       29.92S

$$

WVZ021-048>050-054>055-242200-
EASTERN WEST VIRGINIA PANHANDLE

CITY           SKY/WX    TMP DP  RH WIND       PRES   REMARKS
MARTINSBURG    CLEAR     54  21  27 SE7       29.91S
PETERSBURG*    CLEAR     58  24  27 CALM      29.87S

$$

VAZ036>039-050-242200-
CENTRAL FOOTHILLS

CITY           SKY/WX    TMP DP  RH WIND       PRES   REMARKS
CHARLOTTESVILL CLEAR     55  27  34 S8        29.95S
CULPEPER*      CLEAR     55  25  31 S6        29.97S
ORANGE*        CLEAR     52  28  40 SW5       29.96S
GORDONSVILLE*  CLEAR     53  29  40 S6        29.96S
WARRENTON*     NOT AVBL

$$

VAZ055>057-242200-
NORTH AND CENTRAL PIEDMONT

CITY           SKY/WX    TMP DP  RH WIND       PRES   REMARKS
FREDERICKSBRG* CLEAR     55  31  39 SE8       29.97S
STAFFORD*      CLEAR     53  27  36 S5        30.01S

$$

NCZ024-NYZ072-PAZ021-071-VAZ022-071-242200-
OTHER REGIONAL OBSERVATIONS

CITY           SKY/WX    TMP DP  RH WIND       PRES   REMARKS
NEW YORK CITY  CLEAR     49  23  36 VRB3      29.98S
PHILADELPHIA   CLEAR     50  20  30 SW8       29.98S
PITTSBURGH     PTCLDY    53  19  26 SW12      29.83F
ROANOKE        SUNNY     56  27  32 SE9       29.95F
RICHMOND       PTCLDY    54  27  35 SE3       29.98F
RALEIGH        MOSUNNY   56  23  27 CALM      29.97F

$$

ANZ530>537-242200-
MARINE OBSERVATIONS

STATION/POSITION TIME  TEMP    WIND        PRES
                       AIR SEA DIR/SP/G
                 (UTC) (F)     (DEG/KT/KT) (MB)
THOMAS PT LIGHT  2100   50 51  160/ 11/ 12   N/A
BALT KEY BRIDGE  2042   49     140/  8/ 10 1014.9F
COVE POINT       2042   48     180/ 10/ 11 1016.6R
LEWISETTA        2042   48 50  110/ 11/ 12 1015.9R
SOLOMONS ISLAND  2042   49 53  120/  8/  9 1015.6R
PINEY POINT      2042          150/ 10/ 11   N/A

$$





USA.gov is the U.S. government's official web portal to all federal, state and local government web resources and services.